,,,PA_Meas_PMT16A,,PR_Meas_QMR101_102,,RH_Meas_QMH101,,SR_Meas_QMS101,,TA_Meas_QMH101,,GenWind,,GenWind,
date,time,status,PA,status,PR,status,RH,status,SR,status,TA,status,DirAvg,status,SpdAvg,
2011-07-19, 00:00:04,VALID,1009.888,VALID,0.0,VALID,94.773,VALID,0.0,VALID,24.415,VALID,328.0,VALID,0.383,
2011-07-19, 00:01:04,VALID,1009.875,VALID,0.0,VALID,94.857,VALID,0.0,VALID,24.435,VALID,345.0,VALID,0.505,
2011-07-19, 00:02:04,VALID,1009.858,VALID,0.0,VALID,93.576,VALID,0.0,VALID,24.415,VALID,345.0,VALID,0.393,
2011-07-19, 00:03:04,VALID,1009.839,VALID,0.0,VALID,93.431,VALID,0.0,VALID,24.435,VALID,345.0,VALID,0.335,
2011-07-19, 00:04:04,VALID,1009.818,VALID,0.0,VALID,92.363,VALID,0.0,VALID,24.435,VALID,345.0,VALID,0.312,
2011-07-19, 00:05:04,VALID,1009.796,VALID,0.0,VALID,92.233,VALID,0.0,VALID,24.454,VALID,345.0,VALID,0.156,
2011-07-19, 00:06:04,VALID,1009.799,VALID,0.0,VALID,91.883,VALID,0.0,VALID,24.454,VALID,345.0,VALID,0.0,
2011-07-19, 00:07:04,VALID,1009.792,VALID,0.0,VALID,94.125,VALID,0.0,VALID,24.474,VALID,345.0,VALID,0.0,
2011-07-19, 00:08:04,VALID,1009.757,VALID,0.0,VALID,94.636,VALID,0.0,VALID,24.474,VALID,345.0,VALID,0.0,
2011-07-19, 00:09:04,VALID,1009.76,VALID,0.0,VALID,93.072,VALID,0.0,VALID,24.454,VALID,345.0,VALID,0.0,
2011-07-19, 00:10:04,VALID,1009.733,VALID,0.0,VALID,91.814,VALID,0.0,VALID,24.454,VALID,345.0,VALID,0.0,
2011-07-19, 00:11:04,VALID,1009.693,VALID,0.0,VALID,90.8,VALID,0.0,VALID,24.415,VALID,345.0,VALID,0.093,
2011-07-19, 00:12:04,VALID,1009.662,VALID,0.0,VALID,93.644,VALID,0.0,VALID,24.454,VALID,345.0,VALID,0.156,
2011-07-19, 00:13:04,VALID,1009.631,VALID,0.0,VALID,91.723,VALID,0.0,VALID,24.415,VALID,345.0,VALID,0.149,
2011-07-19, 00:14:04,VALID,1009.636,VALID,0.0,VALID,91.662,VALID,0.0,VALID,24.415,VALID,345.0,VALID,0.0,
2011-07-19, 00:15:04,VALID,1009.609,VALID,0.0,VALID,93.972,VALID,0.0,VALID,24.396,VALID,345.0,VALID,0.004,
2011-07-19, 00:16:04,VALID,1009.579,VALID,0.0,VALID,94.796,VALID,0.0,VALID,24.397,VALID,345.0,VALID,0.142,
2011-07-19, 00:17:04,VALID,1009.584,VALID,0.0,VALID,94.14,VALID,0.0,VALID,24.357,VALID,345.0,VALID,0.241,
2011-07-19, 00:18:04,VALID,1009.535,VALID,0.0,VALID,95.185,VALID,0.0,VALID,24.357,VALID,345.0,VALID,0.405,
2011-07-19, 00:19:05,VALID,1009.537,VALID,0.0,VALID,96.329,VALID,0.106,VALID,24.337,VALID,345.0,VALID,0.516,
2011-07-19, 00:20:05,VALID,1009.504,VALID,0.0,VALID,95.375,VALID,0.0,VALID,24.337,VALID,61.0,VALID,1.109,
2011-07-19, 00:21:05,VALID,1009.533,VALID,0.0,VALID,95.574,VALID,0.0,VALID,24.357,VALID,64.0,VALID,0.764,
2011-07-19, 00:22:05,VALID,1009.54,VALID,0.0,VALID,95.192,VALID,0.0,VALID,24.376,VALID,64.0,VALID,0.784,
2011-07-19, 00:23:05,VALID,1009.523,VALID,0.0,VALID,96.268,VALID,0.0,VALID,24.357,VALID,59.0,VALID,0.655,
2011-07-19, 00:24:05,VALID,1009.514,VALID,0.0,VALID,96.519,VALID,0.0,VALID,24.337,VALID,63.0,VALID,0.608,
2011-07-19, 00:25:05,VALID,1009.489,VALID,0.0,VALID,97.007,VALID,0.106,VALID,24.357,VALID,60.0,VALID,0.401,
2011-07-19, 00:26:05,VALID,1009.477,VALID,0.0,VALID,96.878,VALID,0.0,VALID,24.318,VALID,60.0,VALID,0.081,
2011-07-19, 00:27:05,VALID,1009.463,VALID,0.0,VALID,96.862,VALID,0.0,VALID,24.298,VALID,60.0,VALID,0.05,
2011-07-19, 00:28:05,VALID,1009.438,VALID,0.0,VALID,97.266,VALID,0.0,VALID,24.298,VALID,60.0,VALID,0.0,
2011-07-19, 00:29:05,VALID,1009.469,VALID,0.0,VALID,97.305,VALID,0.0,VALID,24.298,VALID,60.0,VALID,0.0,
2011-07-19, 00:30:05,VALID,1009.404,VALID,0.0,VALID,97.503,VALID,0.0,VALID,24.279,VALID,60.0,VALID,0.433,
2011-07-19, 00:31:05,VALID,1009.401,VALID,0.0,VALID,97.602,VALID,0.0,VALID,24.279,VALID,60.0,VALID,0.346,
2011-07-19, 00:32:05,VALID,1009.405,VALID,0.0,VALID,97.983,VALID,0.0,VALID,24.24,VALID,60.0,VALID,0.142,
2011-07-19, 00:33:05,VALID,1009.393,VALID,0.0,VALID,98.121,VALID,0.0,VALID,24.22,VALID,60.0,VALID,0.214,
2011-07-19, 00:34:05,VALID,1009.401,VALID,0.0,VALID,98.464,VALID,0.0,VALID,24.181,VALID,60.0,VALID,0.0,
2011-07-19, 00:35:05,VALID,1009.421,VALID,0.0,VALID,98.349,VALID,0.0,VALID,24.142,VALID,60.0,VALID,0.028,
2011-07-19, 00:36:05,VALID,1009.422,VALID,0.0,VALID,98.395,VALID,0.0,VALID,24.142,VALID,60.0,VALID,0.354,
2011-07-19, 00:37:05,VALID,1009.435,VALID,0.0,VALID,98.067,VALID,0.0,VALID,24.103,VALID,60.0,VALID,0.166,
2011-07-19, 00:38:05,VALID,1009.433,VALID,0.0,VALID,98.166,VALID,0.0,VALID,24.103,VALID,60.0,VALID,0.362,
2011-07-19, 00:39:05,VALID,1009.447,VALID,0.0,VALID,98.86,VALID,0.0,VALID,24.084,VALID,60.0,VALID,0.308,
2011-07-19, 00:40:05,VALID,1009.455,VALID,0.0,VALID,98.921,VALID,0.0,VALID,24.084,VALID,60.0,VALID,0.408,
2011-07-19, 00:41:05,VALID,1009.406,VALID,0.0,VALID,98.868,VALID,0.0,VALID,24.064,VALID,60.0,VALID,0.405,
2011-07-19, 00:42:05,VALID,1009.375,VALID,0.0,VALID,98.723,VALID,0.0,VALID,24.045,VALID,59.0,VALID,0.404,
2011-07-19, 00:43:05,VALID,1009.369,VALID,0.0,VALID,98.357,VALID,0.0,VALID,24.025,VALID,34.0,VALID,0.718,
2011-07-19, 00:44:05,VALID,1009.342,VALID,0.0,VALID,98.151,VALID,0.0,VALID,24.025,VALID,34.0,VALID,0.269,
2011-07-19, 00:45:05,VALID,1009.329,VALID,0.0,VALID,98.532,VALID,0.0,VALID,24.025,VALID,34.0,VALID,0.074,
2011-07-19, 00:46:05,VALID,1009.358,VALID,0.0,VALID,98.334,VALID,0.0,VALID,24.006,VALID,34.0,VALID,0.324,
2011-07-19, 00:47:05,VALID,1009.343,VALID,0.0,VALID,98.624,VALID,0.0,VALID,24.006,VALID,34.0,VALID,0.212,
2011-07-19, 00:48:05,VALID,1009.321,VALID,0.0,VALID,99.12,VALID,0.0,VALID,24.025,VALID,34.0,VALID,0.021,
2011-07-19, 00:49:05,VALID,1009.286,VALID,0.0,VALID,99.341,VALID,0.106,VALID,24.006,VALID,34.0,VALID,0.0,
2011-07-19, 00:50:05,VALID,1009.28,VALID,0.0,VALID,99.15,VALID,0.0,VALID,23.986,VALID,34.0,VALID,0.186,
2011-07-19, 00:51:05,VALID,1009.258,VALID,0.0,VALID,99.12,VALID,0.0,VALID,23.947,VALID,34.0,VALID,0.09,
2011-07-19, 00:52:05,VALID,1009.247,VALID,0.0,VALID,99.005,VALID,0.0,VALID,23.947,VALID,34.0,VALID,0.053,
2011-07-19, 00:53:05,VALID,1009.227,VALID,0.0,VALID,98.914,VALID,0.0,VALID,23.928,VALID,34.0,VALID,0.184,
2011-07-19, 00:54:05,VALID,1009.205,VALID,0.0,VALID,99.104,VALID,0.0,VALID,23.928,VALID,34.0,VALID,0.147,
2011-07-19, 00:55:05,VALID,1009.212,VALID,0.0,VALID,99.188,VALID,0.0,VALID,23.928,VALID,34.0,VALID,0.228,
2011-07-19, 00:56:05,VALID,1009.212,VALID,0.0,VALID,99.066,VALID,0.0,VALID,23.928,VALID,34.0,VALID,0.377,
2011-07-19, 00:57:05,VALID,1009.196,VALID,0.0,VALID,99.097,VALID,0.0,VALID,23.887,VALID,34.0,VALID,0.527,
2011-07-19, 00:58:05,VALID,1009.167,VALID,0.0,VALID,99.158,VALID,0.0,VALID,23.889,VALID,31.0,VALID,0.565,
2011-07-19, 00:59:05,VALID,1009.168,VALID,0.0,VALID,99.508,VALID,0.106,VALID,23.869,VALID,29.0,VALID,0.368,
2011-07-19, 01:00:05,VALID,1009.152,VALID,0.0,VALID,99.676,VALID,0.0,VALID,23.85,VALID,29.0,VALID,0.355,
2011-07-19, 01:01:05,VALID,1009.131,VALID,0.0,VALID,99.585,VALID,0.0,VALID,23.83,VALID,29.0,VALID,0.456,
2011-07-19, 01:02:05,VALID,1009.13,VALID,0.0,VALID,99.592,VALID,0.106,VALID,23.83,VALID,29.0,VALID,0.339,
2011-07-19, 01:03:05,VALID,1009.124,VALID,0.0,VALID,99.547,VALID,0.0,VALID,23.811,VALID,29.0,VALID,0.391,
2011-07-19, 01:04:05,VALID,1009.139,VALID,0.0,VALID,99.569,VALID,0.106,VALID,23.83,VALID,29.0,VALID,0.256,
2011-07-19, 01:05:05,VALID,1009.116,VALID,0.0,VALID,99.638,VALID,0.0,VALID,23.811,VALID,29.0,VALID,0.014,
2011-07-19, 01:06:05,VALID,1009.115,VALID,0.0,VALID,99.714,VALID,0.0,VALID,23.811,VALID,29.0,VALID,0.039,
2011-07-19, 01:07:05,VALID,1009.063,VALID,0.0,VALID,99.958,VALID,0.0,VALID,23.791,VALID,29.0,VALID,0.145,
2011-07-19, 01:08:05,VALID,1009.08,VALID,0.0,VALID,100.019,VALID,0.0,VALID,23.772,VALID,29.0,VALID,0.334,
2011-07-19, 01:09:05,VALID,1009.058,VALID,0.0,VALID,99.981,VALID,0.106,VALID,23.752,VALID,29.0,VALID,0.384,
2011-07-19, 01:10:05,VALID,1009.053,VALID,0.0,VALID,100.012,VALID,0.106,VALID,23.692,VALID,30.0,VALID,0.598,
2011-07-19, 01:11:05,VALID,1009.039,VALID,0.0,VALID,100.202,VALID,0.0,VALID,23.694,VALID,30.0,VALID,0.409,
2011-07-19, 01:12:05,VALID,1009.018,VALID,0.0,VALID,100.294,VALID,0.0,VALID,23.675,VALID,30.0,VALID,0.236,
2011-07-19, 01:13:05,VALID,1009.0,VALID,0.0,VALID,100.37,VALID,0.0,VALID,23.655,VALID,30.0,VALID,0.36,
2011-07-19, 01:14:05,VALID,1008.964,VALID,0.0,VALID,100.424,VALID,0.0,VALID,23.636,VALID,30.0,VALID,0.009,
2011-07-19, 01:15:05,VALID,1008.973,VALID,0.0,VALID,100.485,VALID,0.0,VALID,23.636,VALID,30.0,VALID,0.184,
2011-07-19, 01:16:05,VALID,1008.972,VALID,0.0,VALID,100.561,VALID,0.0,VALID,23.616,VALID,30.0,VALID,0.0,
2011-07-19, 01:17:05,VALID,1008.992,VALID,0.0,VALID,100.675,VALID,0.0,VALID,23.597,VALID,30.0,VALID,0.025,
2011-07-19, 01:18:05,VALID,1008.981,VALID,0.0,VALID,100.912,VALID,0.0,VALID,23.575,VALID,30.0,VALID,0.115,
2011-07-19, 01:19:05,VALID,1008.952,VALID,0.0,VALID,100.973,VALID,0.0,VALID,23.577,VALID,30.0,VALID,0.354,
2011-07-19, 01:20:05,VALID,1008.964,VALID,0.0,VALID,101.034,VALID,0.0,VALID,23.558,VALID,30.0,VALID,0.438,
2011-07-19, 01:21:05,VALID,1008.97,VALID,0.0,VALID,101.156,VALID,0.0,VALID,23.538,VALID,30.0,VALID,0.402,
2011-07-19, 01:22:05,VALID,1008.984,VALID,0.0,VALID,101.24,VALID,0.0,VALID,23.519,VALID,30.0,VALID,0.273,
2011-07-19, 01:23:05,VALID,1008.997,VALID,0.0,VALID,101.308,VALID,0.0,VALID,23.519,VALID,30.0,VALID,0.416,
2011-07-19, 01:24:05,VALID,1008.982,VALID,0.0,VALID,101.308,VALID,0.106,VALID,23.478,VALID,58.0,VALID,0.33,
2011-07-19, 01:25:05,VALID,1008.96,VALID,0.0,VALID,101.301,VALID,0.0,VALID,23.48,VALID,58.0,VALID,0.482,
2011-07-19, 01:26:05,VALID,1008.979,VALID,0.0,VALID,101.354,VALID,0.0,VALID,23.499,VALID,58.0,VALID,0.296,
2011-07-19, 01:27:05,VALID,1008.979,VALID,0.0,VALID,101.407,VALID,0.0,VALID,23.499,VALID,58.0,VALID,0.425,
2011-07-19, 01:28:05,VALID,1008.977,VALID,0.0,VALID,101.598,VALID,0.0,VALID,23.499,VALID,59.0,VALID,0.664,
2011-07-19, 01:29:05,VALID,1008.939,VALID,0.0,VALID,101.667,VALID,0.0,VALID,23.478,VALID,60.0,VALID,0.511,
2011-07-19, 01:30:05,VALID,1008.908,VALID,0.0,VALID,101.773,VALID,0.0,VALID,23.519,VALID,60.0,VALID,0.56,
2011-07-19, 01:31:05,VALID,1008.911,VALID,0.0,VALID,101.773,VALID,0.0,VALID,23.499,VALID,60.0,VALID,0.268,
2011-07-19, 01:32:05,VALID,1008.865,VALID,0.0,VALID,101.811,VALID,0.0,VALID,23.497,VALID,60.0,VALID,0.263,
2011-07-19, 01:33:05,VALID,1008.831,VALID,0.0,VALID,101.766,VALID,0.0,VALID,23.519,VALID,59.0,VALID,0.42,
2011-07-19, 01:34:05,VALID,1008.838,VALID,0.0,VALID,101.712,VALID,0.0,VALID,23.499,VALID,59.0,VALID,0.329,
2011-07-19, 01:35:05,VALID,1008.85,VALID,0.0,VALID,101.728,VALID,0.0,VALID,23.499,VALID,50.0,VALID,0.564,
2011-07-19, 01:36:05,VALID,1008.856,VALID,0.0,VALID,101.804,VALID,0.0,VALID,23.499,VALID,38.0,VALID,0.155,
2011-07-19, 01:37:05,VALID,1008.838,VALID,0.0,VALID,101.872,VALID,0.106,VALID,23.478,VALID,38.0,VALID,0.56,
2011-07-19, 01:38:05,VALID,1008.827,VALID,0.0,VALID,101.811,VALID,0.0,VALID,23.48,VALID,57.0,VALID,0.362,
2011-07-19, 01:39:05,VALID,1008.814,VALID,0.0,VALID,101.789,VALID,0.0,VALID,23.458,VALID,49.0,VALID,0.357,
2011-07-19, 01:40:05,VALID,1008.81,VALID,0.0,VALID,101.811,VALID,0.106,VALID,23.48,VALID,44.0,VALID,0.347,
2011-07-19, 01:41:05,VALID,1008.796,VALID,0.0,VALID,101.865,VALID,0.106,VALID,23.48,VALID,43.0,VALID,0.212,
2011-07-19, 01:42:05,VALID,1008.799,VALID,0.0,VALID,101.918,VALID,0.0,VALID,23.458,VALID,43.0,VALID,0.032,
2011-07-19, 01:43:05,VALID,1008.783,VALID,0.0,VALID,101.819,VALID,0.0,VALID,23.46,VALID,64.0,VALID,0.723,
2011-07-19, 01:44:05,VALID,1008.767,VALID,0.0,VALID,101.72,VALID,0.0,VALID,23.46,VALID,54.0,VALID,0.268,
2011-07-19, 01:45:05,VALID,1008.781,VALID,0.0,VALID,101.682,VALID,0.0,VALID,23.46,VALID,45.0,VALID,0.398,
2011-07-19, 01:46:05,VALID,1008.76,VALID,0.0,VALID,101.811,VALID,0.106,VALID,23.46,VALID,45.0,VALID,0.282,
2011-07-19, 01:47:05,VALID,1008.738,VALID,0.0,VALID,101.903,VALID,0.0,VALID,23.458,VALID,45.0,VALID,0.125,
2011-07-19, 01:48:05,VALID,1008.704,VALID,0.0,VALID,101.911,VALID,0.106,VALID,23.48,VALID,45.0,VALID,0.284,
2011-07-19, 01:49:05,VALID,1008.727,VALID,0.0,VALID,101.88,VALID,0.0,VALID,23.46,VALID,45.0,VALID,0.448,
2011-07-19, 01:50:05,VALID,1008.72,VALID,0.0,VALID,101.979,VALID,0.0,VALID,23.441,VALID,45.0,VALID,0.305,
2011-07-19, 01:51:05,VALID,1008.708,VALID,0.0,VALID,101.926,VALID,0.0,VALID,23.441,VALID,45.0,VALID,0.661,
2011-07-19, 01:52:05,VALID,1008.703,VALID,0.0,VALID,101.926,VALID,0.0,VALID,23.441,VALID,44.0,VALID,0.255,
2011-07-19, 01:53:05,VALID,1008.7,VALID,0.0,VALID,101.979,VALID,0.0,VALID,23.421,VALID,44.0,VALID,0.39,
2011-07-19, 01:54:05,VALID,1008.684,VALID,0.0,VALID,101.979,VALID,0.0,VALID,23.402,VALID,44.0,VALID,0.049,
2011-07-19, 01:55:05,VALID,1008.685,VALID,0.0,VALID,102.04,VALID,0.0,VALID,23.4,VALID,44.0,VALID,0.0,
2011-07-19, 01:56:05,VALID,1008.687,VALID,0.0,VALID,102.063,VALID,0.106,VALID,23.402,VALID,44.0,VALID,0.0,
2011-07-19, 01:57:05,VALID,1008.695,VALID,0.0,VALID,102.086,VALID,0.0,VALID,23.402,VALID,44.0,VALID,0.214,
2011-07-19, 01:58:05,VALID,1008.667,VALID,0.0,VALID,102.04,VALID,0.0,VALID,23.382,VALID,44.0,VALID,0.0,
2011-07-19, 01:59:05,VALID,1008.663,VALID,0.0,VALID,102.017,VALID,0.106,VALID,23.402,VALID,44.0,VALID,0.0,
2011-07-19, 02:00:05,VALID,1008.669,VALID,0.0,VALID,101.956,VALID,0.0,VALID,23.382,VALID,44.0,VALID,0.185,
2011-07-19, 02:01:05,VALID,1008.644,VALID,0.0,VALID,101.949,VALID,0.0,VALID,23.402,VALID,44.0,VALID,0.018,
2011-07-19, 02:02:05,VALID,1008.634,VALID,0.0,VALID,101.994,VALID,0.0,VALID,23.382,VALID,44.0,VALID,0.575,
2011-07-19, 02:03:05,VALID,1008.64,VALID,0.0,VALID,101.949,VALID,0.106,VALID,23.382,VALID,44.0,VALID,0.462,
2011-07-19, 02:04:05,VALID,1008.653,VALID,0.0,VALID,102.04,VALID,0.106,VALID,23.363,VALID,44.0,VALID,0.5,
2011-07-19, 02:05:05,VALID,1008.655,VALID,0.0,VALID,102.101,VALID,0.106,VALID,23.342,VALID,44.0,VALID,0.296,
2011-07-19, 02:06:05,VALID,1008.638,VALID,0.0,VALID,102.147,VALID,0.0,VALID,23.322,VALID,53.0,VALID,0.577,
2011-07-19, 02:07:05,VALID,1008.625,VALID,0.0,VALID,102.124,VALID,0.106,VALID,23.324,VALID,81.0,VALID,0.707,
2011-07-19, 02:08:05,VALID,1008.627,VALID,0.0,VALID,102.025,VALID,0.106,VALID,23.283,VALID,90.0,VALID,0.827,
2011-07-19, 02:09:05,VALID,1008.622,VALID,0.0,VALID,101.972,VALID,0.106,VALID,23.303,VALID,62.0,VALID,0.527,
2011-07-19, 02:10:05,VALID,1008.616,VALID,0.0,VALID,101.888,VALID,0.106,VALID,23.324,VALID,61.0,VALID,0.242,
2011-07-19, 02:11:05,VALID,1008.58,VALID,0.0,VALID,101.933,VALID,0.106,VALID,23.303,VALID,62.0,VALID,0.136,
2011-07-19, 02:12:05,VALID,1008.601,VALID,0.0,VALID,101.949,VALID,0.0,VALID,23.304,VALID,61.0,VALID,0.0,
2011-07-19, 02:13:05,VALID,1008.598,VALID,0.0,VALID,102.01,VALID,0.106,VALID,23.324,VALID,62.0,VALID,0.0,
2011-07-19, 02:14:05,VALID,1008.585,VALID,0.0,VALID,102.055,VALID,0.106,VALID,23.303,VALID,61.0,VALID,0.083,
2011-07-19, 02:15:05,VALID,1008.608,VALID,0.0,VALID,102.116,VALID,0.106,VALID,23.324,VALID,61.0,VALID,0.0,
2011-07-19, 02:16:05,VALID,1008.623,VALID,0.0,VALID,102.116,VALID,0.106,VALID,23.304,VALID,61.0,VALID,0.0,
2011-07-19, 02:17:05,VALID,1008.631,VALID,0.0,VALID,102.17,VALID,0.106,VALID,23.303,VALID,61.0,VALID,0.0,
2011-07-19, 02:18:05,VALID,1008.616,VALID,0.0,VALID,102.238,VALID,0.0,VALID,23.285,VALID,62.0,VALID,0.253,
2011-07-19, 02:19:05,VALID,1008.597,VALID,0.0,VALID,102.177,VALID,0.0,VALID,23.285,VALID,62.0,VALID,0.207,
2011-07-19, 02:20:05,VALID,1008.619,VALID,0.0,VALID,102.162,VALID,0.0,VALID,23.306,VALID,62.0,VALID,0.334,
2011-07-19, 02:21:05,VALID,1008.625,VALID,0.0,VALID,102.155,VALID,0.0,VALID,23.285,VALID,61.0,VALID,0.52,
2011-07-19, 02:22:05,VALID,1008.613,VALID,0.0,VALID,102.17,VALID,0.0,VALID,23.306,VALID,61.0,VALID,0.334,
2011-07-19, 02:23:05,VALID,1008.643,VALID,0.0,VALID,102.132,VALID,0.0,VALID,23.265,VALID,61.0,VALID,0.328,
2011-07-19, 02:24:05,VALID,1008.655,VALID,0.0,VALID,102.116,VALID,0.0,VALID,23.267,VALID,61.0,VALID,0.216,
2011-07-19, 02:25:05,VALID,1008.664,VALID,0.0,VALID,102.17,VALID,0.0,VALID,23.246,VALID,61.0,VALID,0.498,
2011-07-19, 02:26:05,VALID,1008.669,VALID,0.0,VALID,102.231,VALID,0.0,VALID,23.226,VALID,61.0,VALID,0.203,
2011-07-19, 02:27:05,VALID,1008.678,VALID,0.0,VALID,102.261,VALID,0.0,VALID,23.226,VALID,61.0,VALID,0.37,
2011-07-19, 02:28:05,VALID,1008.647,VALID,0.0,VALID,102.284,VALID,0.0,VALID,23.187,VALID,61.0,VALID,0.417,
2011-07-19, 02:29:05,VALID,1008.646,VALID,0.0,VALID,102.376,VALID,0.0,VALID,23.189,VALID,47.0,VALID,0.449,
2011-07-19, 02:30:05,VALID,1008.668,VALID,0.0,VALID,102.429,VALID,0.0,VALID,23.168,VALID,47.0,VALID,0.362,
2011-07-19, 02:31:05,VALID,1008.659,VALID,0.0,VALID,102.528,VALID,0.0,VALID,23.148,VALID,47.0,VALID,0.458,
2011-07-19, 02:32:05,VALID,1008.7,VALID,0.0,VALID,102.643,VALID,0.0,VALID,23.15,VALID,45.0,VALID,0.24,
2011-07-19, 02:33:05,VALID,1008.692,VALID,0.0,VALID,102.696,VALID,0.106,VALID,23.127,VALID,45.0,VALID,0.325,
2011-07-19, 02:34:05,VALID,1008.682,VALID,0.0,VALID,102.765,VALID,0.106,VALID,23.129,VALID,45.0,VALID,0.186,
2011-07-19, 02:35:05,VALID,1008.704,VALID,0.0,VALID,102.833,VALID,0.106,VALID,23.09,VALID,45.0,VALID,0.094,
2011-07-19, 02:36:05,VALID,1008.716,VALID,0.0,VALID,102.94,VALID,0.0,VALID,23.071,VALID,45.0,VALID,0.038,
2011-07-19, 02:37:05,VALID,1008.716,VALID,0.0,VALID,103.024,VALID,0.106,VALID,23.071,VALID,45.0,VALID,0.25,
2011-07-19, 02:38:05,VALID,1008.693,VALID,0.0,VALID,103.093,VALID,0.106,VALID,23.051,VALID,45.0,VALID,0.64,
2011-07-19, 02:39:05,VALID,1008.709,VALID,0.0,VALID,103.184,VALID,0.106,VALID,23.01,VALID,46.0,VALID,0.796,
2011-07-19, 02:40:05,VALID,1008.679,VALID,0.0,VALID,103.276,VALID,0.106,VALID,22.991,VALID,57.0,VALID,0.734,
2011-07-19, 02:41:05,VALID,1008.723,VALID,0.0,VALID,103.352,VALID,0.0,VALID,22.993,VALID,54.0,VALID,0.665,
2011-07-19, 02:42:05,VALID,1008.692,VALID,0.0,VALID,103.436,VALID,0.106,VALID,23.012,VALID,54.0,VALID,0.419,
2011-07-19, 02:43:05,VALID,1008.729,VALID,0.0,VALID,103.451,VALID,0.0,VALID,22.971,VALID,43.0,VALID,0.473,
2011-07-19, 02:44:05,VALID,1008.726,VALID,0.0,VALID,103.443,VALID,0.106,VALID,22.971,VALID,41.0,VALID,0.246,
2011-07-19, 02:45:05,VALID,1008.755,VALID,0.0,VALID,103.436,VALID,0.106,VALID,22.971,VALID,41.0,VALID,0.073,
2011-07-19, 02:46:05,VALID,1008.742,VALID,0.0,VALID,103.459,VALID,0.106,VALID,22.952,VALID,32.0,VALID,0.277,
2011-07-19, 02:47:05,VALID,1008.755,VALID,0.0,VALID,103.481,VALID,0.106,VALID,22.932,VALID,32.0,VALID,0.356,
2011-07-19, 02:48:05,VALID,1008.783,VALID,0.0,VALID,103.497,VALID,0.0,VALID,22.954,VALID,32.0,VALID,0.021,
2011-07-19, 02:49:05,VALID,1008.777,VALID,0.0,VALID,103.489,VALID,0.0,VALID,22.934,VALID,32.0,VALID,0.361,
2011-07-19, 02:50:05,VALID,1008.761,VALID,0.0,VALID,103.481,VALID,0.0,VALID,22.916,VALID,32.0,VALID,0.111,
2011-07-19, 02:51:05,VALID,1008.734,VALID,0.0,VALID,103.504,VALID,0.0,VALID,22.916,VALID,32.0,VALID,0.0,
2011-07-19, 02:52:05,VALID,1008.742,VALID,0.0,VALID,103.542,VALID,0.0,VALID,22.895,VALID,32.0,VALID,0.22,
2011-07-19, 02:53:05,VALID,1008.714,VALID,0.0,VALID,103.558,VALID,0.0,VALID,22.897,VALID,32.0,VALID,0.317,
2011-07-19, 02:54:05,VALID,1008.681,VALID,0.0,VALID,103.581,VALID,0.0,VALID,22.856,VALID,32.0,VALID,0.338,
2011-07-19, 02:55:05,VALID,1008.674,VALID,0.0,VALID,103.596,VALID,0.0,VALID,22.856,VALID,32.0,VALID,0.39,
2011-07-19, 02:56:05,VALID,1008.65,VALID,0.0,VALID,103.611,VALID,0.0,VALID,22.877,VALID,32.0,VALID,0.21,
2011-07-19, 02:57:05,VALID,1008.619,VALID,0.0,VALID,103.672,VALID,0.0,VALID,22.856,VALID,32.0,VALID,0.341,
2011-07-19, 02:58:05,VALID,1008.617,VALID,0.0,VALID,103.703,VALID,0.0,VALID,22.856,VALID,32.0,VALID,0.371,
2011-07-19, 02:59:05,VALID,1008.613,VALID,0.0,VALID,103.672,VALID,0.0,VALID,22.858,VALID,32.0,VALID,0.415,
2011-07-19, 03:00:05,VALID,1008.602,VALID,0.0,VALID,103.687,VALID,0.0,VALID,22.838,VALID,32.0,VALID,0.266,
2011-07-19, 03:01:05,VALID,1008.602,VALID,0.0,VALID,103.726,VALID,0.0,VALID,22.837,VALID,32.0,VALID,0.213,
2011-07-19, 03:02:05,VALID,1008.614,VALID,0.0,VALID,103.748,VALID,0.0,VALID,22.817,VALID,32.0,VALID,0.016,
2011-07-19, 03:03:05,VALID,1008.606,VALID,0.0,VALID,103.748,VALID,0.0,VALID,22.817,VALID,32.0,VALID,0.157,
2011-07-19, 03:04:05,VALID,1008.593,VALID,0.0,VALID,103.748,VALID,0.0,VALID,22.838,VALID,342.0,VALID,0.555,
2011-07-19, 03:05:05,VALID,1008.562,VALID,0.0,VALID,103.756,VALID,0.0,VALID,22.838,VALID,342.0,VALID,0.03,
2011-07-19, 03:06:04,VALID,1008.532,VALID,0.0,VALID,103.771,VALID,0.0,VALID,22.817,VALID,342.0,VALID,0.135,
2011-07-19, 03:07:04,VALID,1008.526,VALID,0.0,VALID,103.779,VALID,0.0,VALID,22.838,VALID,342.0,VALID,0.443,
2011-07-19, 03:08:04,VALID,1008.537,VALID,0.0,VALID,103.764,VALID,0.0,VALID,22.819,VALID,344.0,VALID,0.494,
2011-07-19, 03:09:04,VALID,1008.538,VALID,0.0,VALID,103.764,VALID,0.0,VALID,22.838,VALID,344.0,VALID,0.363,
2011-07-19, 03:10:04,VALID,1008.567,VALID,0.0,VALID,103.756,VALID,0.0,VALID,22.817,VALID,344.0,VALID,0.075,
2011-07-19, 03:11:04,VALID,1008.559,VALID,0.0,VALID,103.733,VALID,0.0,VALID,22.778,VALID,344.0,VALID,0.003,
2011-07-19, 03:12:04,VALID,1008.562,VALID,0.0,VALID,103.771,VALID,0.0,VALID,22.8,VALID,344.0,VALID,0.19,
2011-07-19, 03:13:04,VALID,1008.556,VALID,0.0,VALID,103.764,VALID,0.0,VALID,22.8,VALID,353.0,VALID,0.383,
2011-07-19, 03:14:04,VALID,1008.579,VALID,0.0,VALID,103.787,VALID,0.0,VALID,22.778,VALID,353.0,VALID,0.317,
2011-07-19, 03:15:04,VALID,1008.598,VALID,0.0,VALID,103.802,VALID,0.0,VALID,22.8,VALID,353.0,VALID,0.266,
2011-07-19, 03:16:04,VALID,1008.586,VALID,0.0,VALID,103.832,VALID,0.0,VALID,22.8,VALID,353.0,VALID,0.177,
2011-07-19, 03:17:04,VALID,1008.593,VALID,0.0,VALID,103.84,VALID,0.0,VALID,22.8,VALID,353.0,VALID,0.021,
2011-07-19, 03:18:04,VALID,1008.58,VALID,0.0,VALID,103.848,VALID,0.106,VALID,22.798,VALID,353.0,VALID,0.344,
2011-07-19, 03:19:04,VALID,1008.589,VALID,0.0,VALID,103.878,VALID,0.106,VALID,22.817,VALID,353.0,VALID,0.234,
2011-07-19, 03:20:04,VALID,1008.613,VALID,0.0,VALID,103.848,VALID,0.0,VALID,22.798,VALID,353.0,VALID,0.274,
2011-07-19, 03:21:04,VALID,1008.594,VALID,0.0,VALID,103.855,VALID,0.0,VALID,22.798,VALID,353.0,VALID,0.287,
2011-07-19, 03:22:04,VALID,1008.641,VALID,0.0,VALID,103.87,VALID,0.106,VALID,22.778,VALID,353.0,VALID,0.226,
2011-07-19, 03:23:04,VALID,1008.655,VALID,0.0,VALID,103.863,VALID,0.0,VALID,22.798,VALID,353.0,VALID,0.232,
2011-07-19, 03:24:04,VALID,1008.701,VALID,0.0,VALID,103.878,VALID,0.106,VALID,22.798,VALID,353.0,VALID,0.004,
2011-07-19, 03:25:04,VALID,1008.712,VALID,0.0,VALID,103.886,VALID,0.0,VALID,22.798,VALID,353.0,VALID,0.0,
2011-07-19, 03:26:04,VALID,1008.714,VALID,0.0,VALID,103.886,VALID,0.0,VALID,22.798,VALID,353.0,VALID,0.345,
2011-07-19, 03:27:04,VALID,1008.741,VALID,0.0,VALID,103.901,VALID,0.106,VALID,22.796,VALID,351.0,VALID,0.403,
2011-07-19, 03:28:04,VALID,1008.758,VALID,0.0,VALID,103.893,VALID,0.106,VALID,22.837,VALID,351.0,VALID,0.0,
2011-07-19, 03:29:04,VALID,1008.758,VALID,0.0,VALID,103.893,VALID,0.106,VALID,22.817,VALID,351.0,VALID,0.008,
2011-07-19, 03:30:04,VALID,1008.751,VALID,0.0,VALID,103.863,VALID,0.106,VALID,22.796,VALID,351.0,VALID,0.0,
2011-07-19, 03:31:04,VALID,1008.777,VALID,0.0,VALID,103.84,VALID,0.106,VALID,22.837,VALID,351.0,VALID,0.183,
2011-07-19, 03:32:04,VALID,1008.772,VALID,0.0,VALID,103.817,VALID,0.106,VALID,22.817,VALID,351.0,VALID,0.0,
2011-07-19, 03:33:04,VALID,1008.734,VALID,0.0,VALID,103.817,VALID,0.0,VALID,22.838,VALID,351.0,VALID,0.0,
2011-07-19, 03:34:04,VALID,1008.738,VALID,0.0,VALID,103.809,VALID,0.106,VALID,22.796,VALID,351.0,VALID,0.0,
2011-07-19, 03:35:04,VALID,1008.742,VALID,0.0,VALID,103.855,VALID,0.0,VALID,22.817,VALID,351.0,VALID,0.0,
2011-07-19, 03:36:04,VALID,1008.721,VALID,0.0,VALID,103.84,VALID,0.0,VALID,22.817,VALID,351.0,VALID,0.032,
2011-07-19, 03:37:04,VALID,1008.71,VALID,0.0,VALID,103.817,VALID,0.0,VALID,22.817,VALID,351.0,VALID,0.0,
2011-07-19, 03:38:04,VALID,1008.7,VALID,0.0,VALID,103.809,VALID,0.106,VALID,22.817,VALID,351.0,VALID,0.24,
2011-07-19, 03:39:04,VALID,1008.663,VALID,0.0,VALID,103.771,VALID,0.0,VALID,22.817,VALID,351.0,VALID,0.0,
2011-07-19, 03:40:04,VALID,1008.649,VALID,0.0,VALID,103.764,VALID,0.0,VALID,22.817,VALID,351.0,VALID,0.051,